Regional Weather Roundup
Issued by NWS Sioux Falls, SD

Home | Current Version | Previous Version | Text Only | Print | Product List | Glossary Off
Versions: 1 2 3 4 5 6 7 8 9 10 11 12 13 14 15 16 17 18 19 20 21 22 23 24 25 26 27 28 29 30 31 32 33 34 35 36 37 38 39 40 41 42 43 44 45 46 47 48 49 50

309
ASUS43 KFSD 050702
RWRFSD

WEATHER ROUNDUP FOR SE SOUTH DAKOTA/SW MINNESOTA/NW IOWA
NATIONAL WEATHER SERVICE SIOUX FALLS SD
100 AM CST MON DEC 05 2016

NOTE: "FAIR" INDICATES FEW OR NO CLOUDS BELOW 12,000 FEET WITH NO
SIGNIFICANT WEATHER AND OR OBSTRUCTIONS TO VISIBILITY.


SDZ038>040-050-052>070-050800-
SOUTHEAST SOUTH DAKOTA

CITY           SKY/WX    TMP DP  RH WIND       PRES   REMARKS
CHAMBERLAIN    CLOUDY    35  29  80 SE8       29.60F WCI  28
HURON          CLOUDY    31  28  89 E7        29.67F WCI  24
MADISON        CLOUDY    32  32 100 S8        29.72F WCI  25
MITCHELL       CLOUDY    32  28  85 SE9       29.68F WCI  24
SIOUX FALLS    MOCLDY    32  27  81 S6        29.74F WCI  26
WINNER         FAIR      39  20  46 S16       29.57F
YANKTON        CLEAR     30  25  80 E3        29.73F
$$

MNZ071-072-080-081-089-090-097-098-050800-
SOUTHWEST MINNESOTA

CITY           SKY/WX    TMP DP  RH WIND       PRES   REMARKS
FAIRMONT       CLEAR     31  29  92 SW8       29.81S WCI  23
JACKSON        PTCLDY    30  28  93 S7        29.79F WCI  23
LUVERNE        PTCLDY    28  27  93 CALM      29.77F
MARSHALL       PTCLDY    35  28  75 SW10      29.77S WCI  27
MONTEVIDEO     CLEAR     28  27  93 SW3       29.77S
PIPESTONE      CLOUDY    34  30  86 SE5       29.74F WCI  30
REDWOOD FALLS  CLEAR     30  26  85 SW8       29.78R WCI  22
TRACY          PTCLDY    35  31  86 SW10      29.77S WCI  27
WINDOM         CLEAR     30  28  93 CALM      29.78F
WORTHINGTON    CLEAR     32  30  92 S8        29.77F WCI  25
$$

IAZ001>003-012>014-020>022-031-032-NEZ013-014-SDZ071-050800-
NORTHWEST IOWA

CITY           SKY/WX    TMP DP  RH WIND       PRES   REMARKS
CHEROKEE       PTCLDY    31  31 100 S7        29.81F WCI  24
DENISON        CLEAR     32  30  93 S6        29.82F WCI  26
ESTHERVILLE    CLEAR     32  32 100 SW7       29.80F WCI  26
LE MARS        CLOUDY    32  30  93 S7        29.80F WCI  26
ORANGE CITY    CLOUDY    30  30 100 CALM      29.78F
SHELDON        CLOUDY    30  30 100 SE8       29.77F WCI  23
SIOUX CITY     CLEAR     31  29  92 SE8       29.80F WCI  23
SPENCER        CLEAR     30  29  96 SW12      29.81F WCI  20
STORM LAKE     CLEAR     32  30  93 S12       29.81F WCI  23
$$

ABBREVIATIONS USED IN REMARKS
   TC - TEMPERATURE IN CELSIUS
  WCI - WIND CHILL INDEX
   HX - HEAT INDEX
  VSB - VISIBILITY





USA.gov is the U.S. government's official web portal to all federal, state and local government web resources and services.